Regional Weather Roundup
Issued by NWS

Home | Current Version | Previous Version | Text Only | Print | Product List | Glossary Off
Versions: 1 2 3 4 5 6 7 8 9 10 11 12 13 14 15 16 17 18 19 20 21 22 23 24 25 26 27 28 29 30 31 32 33 34 35 36 37 38 39 40 41 42 43 44 45 46 47 48 49 50

000
ASUS43 KDTX 291101
RWRMI
MICHIGAN HOURLY REGIONAL WEATHER ROUNDUP
NATIONAL WEATHER SERVICE DETROIT/PONTIAC MI
700 AM EDT MON MAY 29 2017

NOTE: "FAIR" INDICATES FEW OR NO CLOUDS BELOW 12,000 FEET WITH NO
SIGNIFICANT WEATHER AND/OR OBSTRUCTION TO VISIBILITY.

MIZ047>049-052>055-059>063-066>070-074>076-081>083-291200-
SOUTHEAST LOWER MICHIGAN

CITY           SKY/WX    TMP DP  RH WIND       PRES   REMARKS
ADRIAN         CLEAR     54  53  97 W3        29.81R
ALMA           CLEAR     55  53  92 SW13      29.74S
ANN ARBOR      CLEAR     51  51 100 SW6       29.78R
BAD AXE        CLOUDY    58  55  91 SW6       29.73R
CARO           CLEAR     54  54  99 CALM      29.73S FOG
DETROIT CITY   CLEAR     58  55  90 W6        29.77R
DETROIT        PTCLDY    58  55  90 SW7       29.79R
FLINT          CLEAR     56  53  90 S5        29.76R
GROSSE ILE     CLEAR     58  55  88 W3        29.78R
HILLSDALE      CLEAR     55  50  82 W5        29.81R
HOWELL         CLEAR     55  51  88 SW5       29.78R

CITY           SKY/WX    TMP DP  RH WIND       PRES   REMARKS
JACKSON        CLEAR     56  52  86 SW8       29.80R
LAMBERTVILLE   CLEAR     58  56  90 W5        29.81R
LANSING        CLEAR     56  50  80 SW6       29.78R
LAPEER         FAIR      57  55  90 SW5       29.76R
MASON          CLEAR     56  52  85 CALM      29.79R
MONROE         CLEAR     58  55  92 W6        29.79R
MT. CLEMENS    MOCLDY    58  58 100 W8        29.75R
PONTIAC        PTCLDY    56  53  90 W6        29.75S
PORT HOPE        N/A     59  56  89 SW8       29.69R
PORT HURON     CLOUDY    57  54  88 SW3       29.74S
TRI CITIES     CLEAR     56  54  93 SW9       29.74R
MIDLAND        FAIR      55  53  92 SW6       29.72R
TROY           CLEAR     57  54  88 SW5       29.78S
SAGINAW HB     CLEAR     55  52  88 SW10      29.73R
$$
MIZ043>046-050>051-056>058-064>065-071>073-077>080-291200-
SOUTHWEST LOWER MICHIGAN

CITY           SKY/WX    TMP DP  RH WIND       PRES   REMARKS
BATTLE CREEK   CLEAR     55  52  89 SW7       29.79R
BENTON HARBOR  CLEAR     52  49  89 E3        29.78R
BIG RAPIDS     FOG       48  47  95 S8        29.72S VSB 1
COLDWATER      MOCLDY    57  55  90 CALM      29.81R
FREMONT        FAIR      47  47 100 S3        29.74R
HOLLAND        CLEAR     53  48  83 S6        29.76S
GRAND RAPIDS   PTCLDY    56  50  80 S5        29.76R
IONIA          FAIR      56  50  80 SW5       29.76R
KALAMAZOO      CLEAR     56  49  77 SW6       29.80R
LUDINGTON      CLEAR     45  45 100 CALM      29.71R
MARSHALL       CLEAR     57  53  86 SW3       29.79R
MOUNT PLEASANT CLEAR     55  51  86 SW6       29.72R
MUSKEGON       PTCLDY    58  48  69 W7        29.73S
SOUTH HAVEN    PTCLDY    58  52  80 S5        29.77S
$$
MIZ016>042-291200-
NORTHERN LOWER MICHIGAN

CITY           SKY/WX    TMP DP  RH WIND       PRES   REMARKS
ALPENA         CLEAR     54  53  97 SW5       29.66R
BEAVER ISLAND  FOG       49  49 100 SW5       29.64S VSB 3/4
BELLAIRE       CLEAR     51  50  95 CALM      29.67S
CADILLAC       CLEAR     49  48  97 SW5       29.70R
CHARLEVOIX     CLEAR     53  52  98 SW7       29.68R
FRANKFORT      CLEAR     54  46  74 CALM      29.68S
GAYLORD        CLEAR     52  47  83 SW9       29.67S
GRAYLING       CLEAR     48  47  97 CALM      29.70R
HARBOR SPRINGS CLEAR     51  51 100 CALM      29.65F
HOUGHTON LAKE  CLEAR     55  49  80 W8        29.71R
MANISTEE       CLEAR     44  44 100 E3        29.70R
OSCODA         CLEAR     55  53  94 SW7       29.68R
PELLSTON       FOG       49  47  93 CALM      29.65S VSB 1/4
ROGERS CITY    PTCLDY    53  53  98 CALM      29.66R
TRAVERSE CITY  PTCLDY    54  47  77 S3        29.66R
$$
MIZ007>008-015-291200-
EASTERN UPPER MICHIGAN

CITY           SKY/WX    TMP DP  RH WIND       PRES   REMARKS
KINROSS        CLOUDY    52  52 100 SE6       29.65S FOG
MACKINAC ISLAN FOG       50  50 100 SE5       29.64F VSB 1/4
NEWBERRY       CLOUDY    52  51  97 S3        29.63R
S. S. MARIE    CLOUDY    54  53  97 SE3       29.64S FOG
MUNISING         N/A     52  51  97 S7        29.60R
$$
MIZ004>006-011>014-085-291200-
CENTRAL UPPER MICHIGAN

CITY           SKY/WX    TMP DP  RH WIND       PRES   REMARKS
MANISTIQUE     FOG       47  44  90 SE3       29.62S VSB<1/4
ESCANABA       CLEAR     49  49 100 CALM      29.63R
SAWYER-GWINN   CLEAR     48  48 100 SW5       29.60F
$$
MIZ001>003-009>011-084-291200-
WESTERN UPPER MICHIGAN

CITY           SKY/WX    TMP DP  RH WIND       PRES   REMARKS
IRON MOUNTAIN  CLEAR     49  45  86 W6        29.61R
HOUGHTON       LGT RAIN  52  49  89 W13       29.55S
COPPER HARBOR    N/A     51  50  96 W6        29.55R
IRONWOOD       CLOUDY    51  49  92 W13       29.61
$$

ABBREVIATIONS USED IN REMARKS
   TC - TEMPERATURE IN CELSIUS
  WCI - WIND CHILL INDEX
   HX - HEAT INDEX
  VSB - VISIBILITY





USA.gov is the U.S. government's official web portal to all federal, state and local government web resources and services.